Location: Newark
(34.0131°N, 4.3314°W)
Time: 17:39:28
(UTC+00:00)

Explorer 7 - Pass Details

Date: 19 October 2019
Orbit: 485 x 680 km, 50.3° (Epoch: 20 November)

Event Time Altitude Azimuth Distance (km) Brightness Sun altitude
Rises 13:12:39 0° 285° (WNW) 2,543 10.3 42.9°
Reaches altitude 10° 13:16:13 10° 320° (NW) 1,668 9.2 42.6°
Maximum altitude 13:17:30 11° 341° (NNW) 1,586 9.0 42.5°
Drops below altitude 10° 13:18:47 10° 1° (N) 1,679 9.0 42.4°
Sets 13:22:25 0° 36° (NE) 2,590 9.8 42.1°
